Regional Weather Roundup
Issued by NWS Mobile, AL

Home | Current Version | Previous Version | Text Only | Print | Product List | Glossary On
Versions: 1 2 3 4 5 6 7 8 9 10 11 12 13 14 15 16 17 18 19 20 21 22 23 24 25 26 27 28 29 30 31 32 33 34 35 36 37 38 39 40 41 42 43 44 45 46 47 48 49 50
000
ASUS44 KMOB 301512
RWRMOB
REGIONAL WEATHER ROUNDUP
NATIONAL WEATHER SERVICE MOBILE AL
1000 AM CDT SAT JUL 30 2016

NOTE: "FAIR" INDICATES FEW OR NO CLOUDS BELOW 12,000 FEET WITH NO
      SIGNIFICANT WEATHER AND/OR OBSTRUCTIONS TO VISIBILITY.

  * THESE STATIONS ARE PART OF THE UNIVERSITY OF SOUTH ALABAMA
    MESONET AND ARE NOT UNDER NWS OR FAA QUALITY CONTROL.

ALZ061>064-301600-
COASTAL ALABAMA

CITY           SKY/WX    TMP DP  RH WIND       PRES   REMARKS
MOBILE REG APT MOSUNNY   86  74  67 W7        30.07S
BROOKLEY FIELD SUNNY     88  76  67 VRB7      30.07R HX  99
USA CAMPUS*    NOT AVBL
DOG RIVER*     NOT AVBL


CITY           SKY/WX    TMP DP  RH WIND       PRES   REMARKS
MOUNT VERNON*  NOT AVBL
SARALAND*      NOT AVBL
BAY MINETTE*   NOT AVBL
LOXLEY*        NOT AVBL
ROBERTSDALE*   NOT AVBL
FAIRHOPE*      NOT AVBL
ELBERTA*       NOT AVBL
FOLEY*         NOT AVBL
GRAND BAY*     NOT AVBL
DAUPHIN ISLND* NOT AVBL
BON SCOUR NWR* NOT AVBL
GULF SHORES    PTSUNNY   87  78  76 NW5       30.06R HX 100

$$

ALZ051>060-301600-
INTERIOR SOUTHWEST AND SOUTH CENTRAL ALABAMA

CITY           SKY/WX    TMP DP  RH WIND       PRES   REMARKS
GREENVILLE     SUNNY     88  71  57 N7        30.06S
EVERGREEN      SUNNY     88  74  63 VRB5      30.07R HX  96
CASTLEBERRY*   NOT AVBL
ATMORE*        NOT AVBL
DIXIE*         NOT AVBL
ANDALUSIA/OPP  SUNNY     92  74  55 W8        30.07R HX 101
ANDALUSIA*     NOT AVBL
FLORALA APT    SUNNY     86  75  69 VRB6      30.08S HX  95
FLORALA*       NOT AVBL

$$

FLZ001>006-301600-
WESTERN FLORIDA PANHANDLE

CITY           SKY/WX    TMP DP  RH WIND       PRES   REMARKS
PENSACOLA      MOSUNNY   88  77  69 N7        30.06R HX 100
NAS PENSACOLA  PTSUNNY   89  77  67 NW8       30.05S HX 101
MILTON           N/A    N/A N/A N/A MISG      30.07R
WHTNG S FIELD  NOT AVBL


CITY           SKY/WX    TMP DP  RH WIND       PRES   REMARKS
WALNUT HILL*   NOT AVBL
JAY*           NOT AVBL
DUKE FIELD     MOSUNNY   86  75  69 NW8       30.06S HX  95
CRESTVIEW      MOSUNNY   88  74  63 W9        30.08R HX  96
VALPARAISO     PTSUNNY   88  74  63 N5        30.05S HX  96
DESTIN         PTSUNNY   91  77  63 VRB6      30.05S HX 104

$$

MSZ076-079-301600-
INTERIOR SOUTHEAST MISSISSIPPI

CITY           SKY/WX    TMP DP  RH WIND       PRES   REMARKS
LEAKESVILLE*   NOT AVBL
AGRICOLA*      NOT AVBL

$$

MARINE OBSERVATIONS

STATION/POSITION TIME  TEMP    WIND        PRES    WAVE
                       AIR SEA DIR/SP/G            HT/PER
                 (UTC) (F)     (DEG/KT/KT) (MB)    (FT/S)
PASCAGOULA       1400   85     290/  7/  9 1017.4R
PETIT BOIS ISLND 1400   85     300/  9/ 12 1018.1R
GRAND BAY        1300   83     310/  6     1019.0R
KATRINA CUT      1400   84     320/ 10     1018.3R
CEDAR POINT      1400   84     310/ 10     1017.6R
E DAUPHIN ISLAND 1400   84     300/  7/  8 1017.6R
MIDDLE BAY LIGHT 1400   86     310/ 11     1017.6R
USCG MOBILE BAY  1400   85 87  300/  6/  9 1018.2R
STATE DOCKS      1400   90                 1017.4R
MEAHER PARK      1400   83     290/  6     1017.6S
WEEKS BAY        1300   83                   N/A
FORT MORGAN      1400   84     330/  9/ 11 1017.3R
12 S ORANGE BCH  1450   86 88  320/  8/ 10 1017.8R   2/ 4
PENSACOLA BAY    1400   86 88  340/  4/  8 1017.9R
64 S DAUPHIN ISL 1500   85 89  280/  6/  8 1017.9R
67 S FORT MORGAN 1430   85     270/  4     1018.0S

$$

SELECTED LOCATIONS ACROSS THE REGION

CITY           SKY/WX    TMP DP  RH WIND       PRES   REMARKS
NEW ORLEANS    MOSUNNY   89  77  67 NW7       30.05S HX 101
GULFPORT       MOSUNNY   87  76  69 NW8       30.05R HX  97
PASCAGOULA AP  MOSUNNY   88  78  72 N7        30.05S HX 101
PASCAGOULA*    NOT AVBL
HATTIESBURG    MOSUNNY   86  76  71 VRB6      30.07S HX  96
LAUREL         SUNNY    N/A N/A N/A W7        30.07S
MERIDIAN       SUNNY     89  73  59 W9        30.06R HX  97
JACKSON        MOSUNNY   87  75  67 SW9G17    30.05S HX  96
MONTGOMERY     MOSUNNY   88  74  63 W12       30.06R HX  96
TROY           MOSUNNY   86  74  67 W6        30.08S
KINSTON*       NOT AVBL
GENEVA*        NOT AVBL
ASHFORD*       NOT AVBL
DOTHAN         MOSUNNY   86  76  71 NW9       30.11R HX  96
PANAMA CITY    CLOUDY    86  77  74 W7        30.05S HX  97

$$




USA.gov is the U.S. government's official web portal to all federal, state and local government web resources and services.